CW6398 Weather Reports


time (UTC)temp
C
wind
direction
speed
KPH
gust
KPH
rain 1hr
cm
rain 24hr
cm
rain mn
cm
humidity
%
barometer
mb
20200226015205 5 14 9.7 22.5 0.00 0.00 0.00 77 997.2
20200226014705 5 15 9.7 22.5 0.00 0.00 0.00 78 997.1
20200226014206 5 15 8.0 19.3 0.00 0.00 0.00 78 997.2
20200226013705 5 13 8.0 24.1 0.00 0.00 0.00 78 997.1
20200226013205 5 13 9.7 25.7 0.00 0.00 0.00 78 997.1
20200226012705 5 15 11.3 25.7 0.00 0.00 0.00 78 997.0
20200226012205 5 13 11.3 25.7 0.00 0.00 0.00 78 997.0
20200226011705 5 14 9.7 24.1 0.00 0.00 0.00 78 997.3
20200226011205 5 14 9.7 22.5 0.00 0.00 0.00 78 997.3
20200226010705 5 12 9.7 22.5 0.00 0.00 0.00 78 997.5
20200226010205 5 11 9.7 24.1 0.00 0.00 0.00 78 997.6
20200226005705 5 14 9.7 24.1 0.00 0.00 0.00 78 997.7
20200226005205 5 15 9.7 24.1 0.00 0.00 0.00 78 997.8
20200226004706 5 13 8.0 19.3 0.00 0.00 0.00 78 997.8
20200226004205 5 12 6.4 19.3 0.00 0.00 0.00 78 997.9
20200226003705 5 13 6.4 20.9 0.00 0.00 0.00 78 998.0
20200226003206 5 13 6.4 20.9 0.00 0.00 0.00 77 998.1
20200226002705 5 12 8.0 20.9 0.00 0.00 0.00 77 998.2
20200226002206 5 12 8.0 17.7 0.00 0.00 0.00 77 998.4
20200226001706 5 13 8.0 14.5 0.00 0.00 0.00 77 998.4
20200226001205 5 13 6.4 12.9 0.00 0.00 0.00 77 998.3
20200226000705 5 12 6.4 12.9 0.00 0.00 0.00 77 998.1
20200226000205 5 11 6.4 12.9 0.00 0.00 0.00 77 998.3
20200225235705 5 12 4.8 12.9 0.00 0.00 0.00 77 998.2
20200225235205 5 12 4.8 12.9 0.00 0.00 0.00 76 998.3
20200225234704 6 13 4.8 16.1 0.00 0.00 0.00 75 998.4
20200225234205 6 15 4.8 16.1 0.00 0.00 0.00 74 998.4
20200225233705 6 12 4.8 16.1 0.00 0.00 0.00 73 998.6
20200225233205 6 14 4.8 20.9 0.00 0.00 0.00 73 998.7
20200225232705 6 13 6.4 20.9 0.00 0.00 0.00 72 998.9
20200225232206 6 13 8.0 20.9 0.00 0.00 0.00 72 998.8
20200225231706 6 14 9.7 20.9 0.00 0.00 0.00 71 998.9
20200225231206 6 11 9.7 19.3 0.00 0.00 0.00 71 998.9
20200225230206 6 13 8.0 22.5 0.00 0.00 0.00 72 999.1
20200225225704 6 13 9.7 22.5 0.00 0.00 0.00 73 999.0
20200225225205 6 12 9.7 19.3 0.00 0.00 0.00 73 999.1
20200225224705 6 15 8.0 19.3 0.00 0.00 0.00 73 999.1
20200225224205 6 14 8.0 19.3 0.00 0.00 0.00 73 998.9
20200225223705 6 15 8.0 20.9 0.00 0.00 0.00 74 998.9
20200225223206 6 13 6.4 25.7 0.00 0.00 0.00 74 999.1
20200225222705 6 14 9.7 25.7 0.00 0.00 0.00 74 999.1
20200225222210 6 13 9.7 25.7 0.00 0.00 0.00 75 999.2
20200225221705 6 13 8.0 22.5 0.00 0.00 0.00 76 999.3
20200225221205 6 13 8.0 22.5 0.00 0.00 0.00 77 999.3
20200225220705 6 15 6.4 22.5 0.00 0.00 0.00 77 999.3
20200225220205 6 13 8.0 17.7 0.00 0.00 0.00 77 999.4
20200225215705 6 12 8.0 17.7 0.00 0.00 0.00 77 999.4
20200225215206 6 12 6.4 16.1 0.00 0.00 0.00 77 999.4
20200225214704 6 15 6.4 16.1 0.00 0.00 0.00 77 999.5
20200225214205 6 14 6.4 16.1 0.00 0.00 0.00 77 999.5
20200225213705 6 14 6.4 16.1 0.00 0.00 0.00 77 999.5
20200225213205 6 15 6.4 16.1 0.00 0.00 0.00 77 999.6
20200225212704 6 13 8.0 19.3 0.00 0.00 0.00 77 999.6
20200225212206 6 14 9.7 19.3 0.00 0.00 0.00 77 999.7
20200225211705 6 13 8.0 19.3 0.00 0.00 0.00 78 999.6
20200225211206 6 14 8.0 16.1 0.00 0.00 0.00 78 999.5
20200225210708 6 13 6.4 19.3 0.00 0.00 0.00 78 999.6
20200225210205 6 13 8.0 22.5 0.00 0.00 0.00 78 999.7
20200225205704 6 14 8.0 22.5 0.00 0.00 0.00 78 999.7
20200225205205 6 13 8.0 22.5 0.00 0.00 0.00 78 999.8
20200225204705 6 15 8.0 20.9 0.00 0.00 0.00 77 999.8
20200225204205 6 13 8.0 20.9 0.00 0.00 0.00 77 999.8
20200225203704 6 13 8.0 20.9 0.00 0.00 0.00 76 999.8
20200225203205 6 14 8.0 17.7 0.00 0.00 0.00 76 999.8
20200225202705 6 15 6.4 20.9 0.00 0.00 0.00 76 999.8
20200225202206 6 14 8.0 20.9 0.00 0.00 0.00 75 999.9
20200225201705 7 13 9.7 29.0 0.00 0.00 0.00 75 1000.0
20200225201205 7 15 9.7 29.0 0.00 0.00 0.00 75 1000.2
20200225200705 7 15 11.3 29.0 0.00 0.00 0.00 75 1000.0
20200225200205 7 14 12.9 30.6 0.00 0.00 0.00 76 1000.2
20200225195705 7 15 12.9 30.6 0.00 0.00 0.00 76 1000.3
20200225195205 7 14 11.3 30.6 0.00 0.00 0.00 76 1000.4
20200225194705 7 12 12.9 30.6 0.00 0.00 0.00 77 1000.3
20200225194205 7 13 12.9 27.4 0.00 0.00 0.00 77 1000.5
20200225193705 7 14 12.9 27.4 0.00 0.00 0.00 77 1000.6
20200225193206 7 15 12.9 27.4 0.00 0.00 0.00 77 1000.6
20200225192705 7 16 11.3 33.8 0.00 0.00 0.00 77 1000.5
20200225192205 7 14 12.9 33.8 0.00 0.00 0.00 77 1000.4
20200225191705 7 13 12.9 33.8 0.00 0.00 0.00 77 1000.4
20200225191206 7 16 12.9 25.7 0.00 0.00 0.00 77 1000.8
20200225190705 7 13 11.3 25.7 0.00 0.00 0.00 77 1000.6
20200225190206 7 14 11.3 25.7 0.00 0.00 0.00 77 1000.8
20200225185705 7 11 9.7 24.1 0.00 0.00 0.00 78 1000.8
20200225185205 7 15 8.0 24.1 0.00 0.00 0.00 78 1000.8
20200225184705 7 13 9.7 22.5 0.00 0.00 0.00 78 1000.9
20200225184205 7 13 8.0 22.5 0.00 0.00 0.00 78 1000.9
20200225183704 7 13 9.7 25.7 0.00 0.00 0.00 78 1000.9
20200225183205 7 13 9.7 25.7 0.00 0.00 0.00 78 1000.9
20200225182705 7 15 11.3 25.7 0.00 0.00 0.00 78 1001.0
20200225182205 7 13 11.3 24.1 0.00 0.00 0.00 78 1001.0
20200225181705 7 13 9.7 24.1 0.00 0.00 0.00 78 1001.0
20200225181205 7 14 8.0 20.9 0.00 0.00 0.00 78 1001.1
20200225180705 7 13 9.7 20.9 0.00 0.00 0.00 78 1000.8
20200225180205 7 14 9.7 22.5 0.00 0.00 0.00 78 1001.1
20200225175705 7 14 9.7 27.4 0.00 0.00 0.00 78 1001.1
20200225175205 7 15 11.3 27.4 0.00 0.00 0.00 78 1001.2
20200225174705 7 14 11.3 27.4 0.00 0.00 0.00 78 1001.3
20200225174206 7 15 11.3 27.4 0.00 0.00 0.00 78 1001.3
20200225173704 7 15 12.9 27.4 0.00 0.00 0.00 78 1001.3
20200225173205 7 13 11.3 27.4 0.00 0.00 0.00 78 1001.4
20200225172705 7 13 11.3 24.1 0.00 0.00 0.00 78 1001.4
20200225172204 7 13 11.3 24.1 0.00 0.00 0.00 78 1001.4
20200225171705 7 14 11.3 25.7 0.00 0.00 0.00 78 1001.5
20200225171205 7 13 9.7 25.7 0.00 0.00 0.00 78 1001.4
20200225170705 7 13 9.7 25.7 0.00 0.00 0.00 79 1001.4
20200225170205 7 13 9.7 29.0 0.00 0.00 0.00 79 1001.7
20200225165705 7 15 11.3 29.0 0.00 0.00 0.00 79 1001.6
20200225165205 7 13 11.3 29.0 0.00 0.00 0.00 79 1001.7
20200225164705 7 13 9.7 24.1 0.00 0.00 0.00 79 1001.7
20200225164205 7 15 9.7 27.4 0.00 0.00 0.00 79 1001.8
20200225163705 7 14 11.3 27.4 0.00 0.00 0.00 79 1001.9
20200225163205 7 15 11.3 25.7 0.00 0.00 0.00 79 1001.9
20200225162705 8 15 11.3 25.7 0.00 0.00 0.00 79 1002.0
20200225162205 8 13 11.3 25.7 0.00 0.00 0.00 79 1002.0
20200225161705 8 15 9.7 29.0 0.00 0.00 0.00 79 1002.0
20200225161205 8 15 9.7 29.0 0.00 0.00 0.00 79 1002.0
20200225160705 8 13 9.7 29.0 0.00 0.00 0.00 78 1002.0
20200225160205 8 13 9.7 27.4 0.00 0.00 0.00 78 1001.9
20200225155705 8 15 11.3 27.4 0.00 0.00 0.00 78 1001.9
20200225155205 8 13 11.3 27.4 0.00 0.00 0.00 78 1001.9
20200225154705 8 15 11.3 22.5 0.00 0.00 0.00 77 1002.1
20200225154205 8 14 12.9 25.7 0.00 0.00 0.00 76 1002.1
20200225153705 8 14 12.9 25.7 0.00 0.00 0.00 76 1002.1
20200225153206 8 13 12.9 30.6 0.00 0.00 0.00 75 1002.1
20200225152705 8 14 11.3 30.6 0.00 0.00 0.00 76 1002.2
20200225152206 8 15 11.3 24.1 0.00 0.00 0.00 76 1002.2
20200225151705 8 15 9.7 22.5 0.00 0.00 0.00 76 1002.3
20200225151205 8 15 9.7 20.9 0.00 0.00 0.00 77 1002.4
20200225150706 8 14 9.7 22.5 0.00 0.00 0.00 77 1002.4
20200225150205 8 15 9.7 22.5 0.00 0.00 0.00 77 1002.6
20200225145705 8 14 9.7 24.1 0.00 0.00 0.00 78 1002.5
20200225145205 8 14 9.7 24.1 0.00 0.00 0.00 77 1002.5
20200225144705 8 13 9.7 24.1 0.00 0.00 0.00 77 1002.4
20200225144210 8 13 9.7 24.1 0.00 0.00 0.00 77 1002.5
20200225143705 8 15 9.7 24.1 0.00 0.00 0.00 75 1002.7
20200225143205 8 15 9.7 24.1 0.00 0.00 0.00 75 1002.7
20200225142705 9 14 11.3 24.1 0.00 0.00 0.00 74 1002.7
20200225142205 9 15 9.7 25.7 0.00 0.00 0.00 74 1002.8
20200225141705 9 16 11.3 25.7 0.00 0.00 0.00 73 1002.7
20200225141205 9 14 12.9 25.7 0.00 0.00 0.00 73 1002.8
20200225140705 9 15 11.3 25.7 0.00 0.00 0.00 73 1002.8
20200225140205 9 15 9.7 24.1 0.00 0.00 0.00 73 1002.8
20200225135705 9 13 11.3 25.7 0.00 0.00 0.00 73 1002.8
20200225135206 9 15 11.3 29.0 0.00 0.00 0.00 73 1003.0
20200225134705 9 10 11.3 29.0 0.00 0.00 0.00 73 1003.1
20200225134206 9 14 12.9 29.0 0.00 0.00 0.00 73 1003.0
20200225133706 9 14 11.3 25.7 0.00 0.00 0.00 73 1003.0
20200225133205 9 13 9.7 25.7 0.00 0.00 0.00 75 1002.8
20200225132705 9 15 8.0 33.8 0.00 0.00 0.00 75 1003.1
20200225132205 9 17 9.7 33.8 0.00 0.00 0.00 76 1003.1
20200225131705 8 15 11.3 33.8 0.00 0.00 0.00 76 1003.1
20200225131206 9 15 14.5 33.8 0.00 0.00 0.00 75 1003.2
20200225130704 9 15 16.1 38.6 0.00 0.00 0.00 74 1003.2
20200225130205 9 15 16.1 38.6 0.00 0.00 0.00 73 1003.3
20200225125705 9 15 16.1 38.6 0.00 0.00 0.00 72 1003.3
20200225125205 10 17 14.5 32.2 0.00 0.00 0.00 71 1003.3
20200225124710 10 14 14.5 32.2 0.00 0.00 0.00 72 1003.3
20200225124205 10 16 16.1 35.4 0.00 0.00 0.00 71 1003.3
20200225123705 10 17 16.1 35.4 0.00 0.00 0.00 71 1003.3
20200225123205 10 16 16.1 38.6 0.00 0.00 0.00 72 1003.3
20200225122705 10 14 16.1 48.3 0.00 0.00 0.00 72 1003.5
20200225122205 10 13 17.7 48.3 0.00 0.00 0.00 72 1003.4
20200225121705 10 16 17.7 37.0 0.00 0.00 0.00 71 1003.6
20200225121206 10 15 19.3 37.0 0.00 0.00 0.00 70 1003.9
20200225120705 10 15 16.1 41.8 0.00 0.00 0.00 70 1004.0
20200225120205 10 13 14.5 41.8 0.00 0.00 0.00 69 1004.0
20200225115706 11 15 16.1 41.8 0.00 0.00 0.00 68 1003.8
20200225115205 11 15 17.7 37.0 0.00 0.00 0.00 68 1003.8
20200225114705 11 13 16.1 37.0 0.00 0.00 0.00 67 1003.9
20200225114219 11 14 16.1 30.6 0.00 0.00 0.00 66 1004.1
20200225113705 11 11 11.3 33.8 0.00 0.00 0.00 66 1004.0
20200225113205 11 15 12.9 33.8 0.00 0.00 0.00 68 1004.0
20200225112705 11 16 19.3 33.8 0.00 0.00 0.00 67 1004.2
20200225112205 11 14 16.1 32.2 0.00 0.00 0.00 65 1004.2
20200225111706 11 15 11.3 27.4 0.00 0.00 0.00 64 1004.4
20200225111205 11 15 11.3 29.0 0.00 0.00 0.00 63 1004.2
20200225110705 11 15 14.5 29.0 0.00 0.00 0.00 63 1004.3
20200225110205 11 13 14.5 30.6 0.00 0.00 0.00 62 1004.4
20200225105705 11 16 12.9 30.6 0.00 0.00 0.00 60 1004.4
20200225105205 11 17 11.3 30.6 0.00 0.00 0.00 59 1004.3
20200225104705 11 15 9.7 20.9 0.00 0.00 0.00 59 1004.2
20200225104205 11 15 11.3 20.9 0.00 0.00 0.00 57 1004.3
20200225103704 11 16 9.7 20.9 0.00 0.00 0.00 56 1004.3
20200225103205 11 16 9.7 25.7 0.00 0.00 0.00 57 1004.4
20200225102705 11 12 12.9 25.7 0.00 0.00 0.00 56 1004.4
20200225102205 11 17 12.9 25.7 0.00 0.03 0.00 56 1004.4
20200225101705 11 15 11.3 25.7 0.00 0.03 0.00 57 1004.5
20200225101206 11 15 11.3 32.2 0.00 0.03 0.00 57 1004.5
20200225100706 11 14 11.3 32.2 0.00 0.03 0.00 56 1004.5
20200225100205 11 15 11.3 32.2 0.00 0.03 0.00 57 1004.6
20200225095705 11 14 11.3 25.7 0.00 0.03 0.00 57 1004.7
20200225095205 11 15 11.3 32.2 0.00 0.03 0.00 56 1004.8
20200225094705 11 14 14.5 32.2 0.00 0.03 0.00 55 1004.8
20200225094205 11 14 16.1 32.2 0.00 0.03 0.00 53 1004.8
20200225093705 11 15 12.9 32.2 0.00 0.03 0.00 52 1004.8
20200225093205 11 17 9.7 32.2 0.00 0.03 0.00 53 1004.9
20200225092705 11 13 11.3 32.2 0.00 0.03 0.00 55 1005.0
20200225092205 10 15 11.3 32.2 0.00 0.03 0.00 53 1005.1
20200225091705 10 13 9.7 24.1 0.00 0.03 0.00 55 1005.1
20200225091206 10 14 9.7 22.5 0.00 0.03 0.00 54 1005.3
20200225090705 10 13 8.0 25.7 0.00 0.03 0.00 54 1005.0
20200225090205 10 15 9.7 25.7 0.00 0.03 0.00 54 1005.1
20200225085705 10 13 9.7 25.7 0.00 0.03 0.00 54 1005.0
20200225085205 10 15 8.0 20.9 0.00 0.03 0.00 55 1005.1
20200225084705 10 15 9.7 20.9 0.00 0.03 0.00 55 1005.1
20200225084205 10 13 8.0 19.3 0.00 0.03 0.00 54 1005.3
20200225083705 10 13 8.0 19.3 0.00 0.03 0.00 54 1005.4
20200225083206 10 13 9.7 20.9 0.00 0.03 0.00 54 1005.5
20200225082705 10 15 9.7 20.9 0.00 0.03 0.00 54 1005.6
20200225082205 10 15 9.7 20.9 0.00 0.03 0.00 55 1005.7
20200225081705 10 13 9.7 20.9 0.00 0.03 0.00 55 1005.7
20200225081205 9 13 8.0 22.5 0.00 0.03 0.00 56 1005.8
20200225080705 9 13 8.0 22.5 0.00 0.03 0.00 57 1005.8
20200225080205 9 15 8.0 17.7 0.00 0.03 0.00 58 1005.9
20200225075705 8 14 6.4 16.1 0.00 0.03 0.00 59 1006.0
20200225075206 8 14 6.4 16.1 0.00 0.03 0.00 59 1006.0
20200225074705 8 14 4.8 14.5 0.00 0.03 0.00 59 1006.0
20200225074205 8 14 4.8 14.5 0.00 0.03 0.00 59 1006.0
20200225073705 8 13 4.8 14.5 0.00 0.05 0.00 59 1006.1
20200225073205 8 15 4.8 14.5 0.00 0.05 0.00 60 1006.1
20200225072705 8 12 6.4 14.5 0.00 0.05 0.00 60 1006.1
20200225072205 8 14 4.8 14.5 0.00 0.05 0.00 59 1006.2
20200225071705 8 14 6.4 16.1 0.00 0.05 0.00 60 1006.1
20200225071205 8 13 6.4 16.1 0.00 0.05 0.00 60 1006.1
20200225070705 8 14 6.4 16.1 0.00 0.05 0.00 61 1006.2
20200225070205 8 13 4.8 12.9 0.00 0.05 0.00 61 1006.2
20200225065705 8 14 4.8 12.9 0.00 0.05 0.00 60 1006.2
20200225065206 8 15 6.4 17.7 0.00 0.05 0.00 61 1006.2
20200225064705 8 15 6.4 17.7 0.00 0.05 0.00 61 1006.3
20200225064205 8 13 8.0 16.1 0.00 0.05 0.00 61 1006.3
20200225063705 8 13 6.4 12.9 0.00 0.08 0.00 62 1006.2
20200225063206 8 14 4.8 12.9 0.00 0.08 0.00 62 1006.2
20200225062705 8 14 4.8 14.5 0.00 0.10 0.00 62 1006.2
20200225062205 8 13 6.4 14.5 0.00 0.10 0.00 62 1006.1
20200225061705 8 13 4.8 14.5 0.00 0.10 0.00 63 1006.2
20200225061205 8 14 4.8 12.9 0.00 0.13 0.00 64 1006.3
20200225060705 8 15 4.8 12.9 0.00 0.13 0.00 64 1006.2
20200225060205 8 13 4.8 12.9 0.00 0.13 0.00 65 1006.2
20200225055705 8 13 4.8 12.9 0.00 0.13 0.00 65 1006.2
20200225055206 8 14 4.8 12.9 0.00 0.15 0.00 66 1006.3
20200225054705 8 13 4.8 12.9 0.00 0.15 0.00 66 1006.4
20200225054205 8 13 4.8 11.3 0.00 0.15 0.00 67 1006.5
20200225053705 8 13 4.8 11.3 0.00 0.15 0.00 68 1006.4
20200225053205 8 14 3.2 11.3 0.00 0.15 0.00 68 1006.4
20200225052705 8 14 3.2 11.3 0.00 0.15 0.00 68 1006.5
20200225052205 8 13 3.2 11.3 0.00 0.15 0.00 68 1006.5
20200225051705 8 13 3.2 11.3 0.00 0.15 0.00 68 1006.6
20200225051205 8 14 4.8 11.3 0.00 0.15 0.00 68 1006.6
20200225050705 8 13 4.8 12.9 0.00 0.18 0.00 67 1006.6
20200225050206 8 14 4.8 12.9 0.00 0.18 0.00 68 1006.6
20200225045705 8 13 4.8 12.9 0.00 0.18 0.00 67 1006.6
20200225045205 8 13 4.8 12.9 0.00 0.18 0.00 68 1006.6
20200225044705 8 15 4.8 12.9 0.00 0.20 0.00 68 1006.6
20200225044205 8 13 4.8 14.5 0.00 0.20 0.00 69 1006.6
20200225043705 8 13 4.8 14.5 0.00 0.20 0.00 69 1006.6
20200225043205 8 13 4.8 14.5 0.00 0.23 0.00 69 1006.6
20200225042705 8 13 3.2 11.3 0.00 0.23 0.00 70 1006.6
20200225042206 8 11 3.2 12.9 0.00 0.23 0.00 70 1006.5
20200225041705 8 13 4.8 12.9 0.00 0.23 0.00 71 1006.5
20200225041206 8 11 3.2 12.9 0.00 0.23 0.00 71 1006.5
20200225040705 7 13 3.2 6.4 0.00 0.23 0.00 72 1006.5
20200225040205 7 13 3.2 8.0 0.00 0.23 0.00 73 1006.5
20200225035705 7 14 3.2 8.0 0.00 0.25 0.00 73 1006.5
20200225035205 7 13 3.2 8.0 0.00 0.28 0.00 74 1006.5
20200225034705 7 13 3.2 6.4 0.00 0.30 0.00 74 1006.5
20200225034205 6 13 1.6 3.2 0.00 0.33 0.00 74 1006.5
20200225033705 6 14 1.6 4.8 0.00 0.33 0.00 73 1006.6
20200225033206 7 14 1.6 4.8 0.00 0.33 0.00 73 1006.5
20200225032705 7 15 1.6 4.8 0.00 0.33 0.00 73 1006.6
20200225032205 7 15 1.6 4.8 0.00 0.36 0.00 72 1006.6
20200225031705 7 15 1.6 4.8 0.00 0.36 0.00 72 1006.6
20200225031205 7 13 1.6 6.4 0.00 0.38 0.00 71 1006.7
20200225030705 7 13 1.6 6.4 0.00 0.38 0.00 71 1006.7
20200225030205 7 13 3.2 6.4 0.00 0.41 0.00 71 1006.7
20200225025705 7 13 3.2 4.8 0.00 0.43 0.00 70 1006.8
20200225025205 8 13 1.6 6.4 0.00 0.43 0.00 70 1006.9
20200225024705 8 14 1.6 6.4 0.00 0.43 0.00 69 1006.9
20200225024205 8 12 1.6 6.4 0.00 0.46 0.00 69 1007.0
20200225023705 8 13 3.2 8.0 0.00 0.46 0.00 69 1007.0
20200225023206 8 13 3.2 8.0 0.00 0.46 0.00 69 1007.1
20200225022705 8 15 3.2 8.0 0.00 0.48 0.00 69 1007.2
20200225022205 8 13 3.2 8.0 0.00 0.48 0.00 69 1007.2
20200225021705 8 14 3.2 4.8 0.00 0.51 0.00 68 1007.3
20200225021205 8 14 1.6 6.4 0.00 0.51 0.00 68 1007.5
20200225020705 8 13 1.6 6.4 0.00 0.51 0.00 68 1007.6
20200225020206 8 13 3.2 11.3 0.00 0.51 0.00 68 1007.7
20200225015705 8 15 3.2 11.3 0.00 0.51 0.00 68 1007.8